When you browse on this site, cookies collect data to enhance your experience and personalize the content and advertising you see.
Visit our Privacy Policy to learn more. By continuing to use the site, you agree to this use of cookies and data.
  • In Österreich
  • Länderverzeichnis
  • Für 7 Tage
  • Wassertemperatur
  • Satellitenkarten
  • Wetterkarte
  • News
  • Widgets
  • user-avatar
    Anmelden

    Stündliche Wetter Enkamp

    Heute, 19 Januar, Samstag

    Zeit Temperatur Niederschläge Wind Luftdruck Luftfeuchtigkeit
    00:00 -5°C° 0 mm 0 m/S 618 mmHg 73%
    01:00 -5°C° 0 mm 0 m/S 617 mmHg 72%
    02:00 -6°C° 0 mm 1 m/S 617 mmHg 72%
    03:00 -6°C° 0 mm 1 m/S 617 mmHg 72%
    04:00 -6°C° 0 mm 1 m/S 617 mmHg 72%
    05:00 -6°C° 0 mm 1 m/S 617 mmHg 72%
    06:00 -6°C° 0 mm 1 m/S 617 mmHg 72%
    07:00 -3°C° 0 mm 1 m/S 617 mmHg 69%
    08:00 -3°C° 0 mm 0 m/S 618 mmHg 66%
    09:00 -2°C° 0 mm 0 m/S 618 mmHg 63%
    10:00 -1°C° 0 mm 0 m/S 619 mmHg 60%
    11:00 +2°C° 0 mm 1 m/S 619 mmHg 57%
    12:00 +3°C° 0 mm 1 m/S 619 mmHg 54%
    13:00 +3°C° 0 mm 1 m/S 619 mmHg 55%
    14:00 +2°C° 0 mm 1 m/S 618 mmHg 57%
    15:00 +2°C° 0 mm 1 m/S 618 mmHg 58%
    16:00 +1°C° 0 mm 1 m/S 617 mmHg 65%
    17:00 -1°C° 0 mm 1 m/S 616 mmHg 72%
    18:00 -3°C° 0 mm 1 m/S 616 mmHg 79%
    19:00 -3°C° 0 mm 1 m/S 615 mmHg 79%
    20:00 -3°C° 0 mm 1 m/S 615 mmHg 78%
    21:00 -3°C° 0 mm 1 m/S 615 mmHg 78%
    22:00 -2°C° 0 mm 1 m/S 615 mmHg 77%
    23:00 -2°C° 0 mm 1 m/S 615 mmHg 77%

    Morgen, 20 Januar, Sonntag

    Zeit Temperatur Niederschläge Wind Luftdruck Luftfeuchtigkeit
    00:00 -2°C° 0 mm 1 m/S 615 mmHg 76%
    01:00 -2°C° 0 mm 1 m/S 615 mmHg 77%
    02:00 -2°C° 0 mm 1 m/S 615 mmHg 77%
    03:00 -2°C° 0 mm 1 m/S 615 mmHg 77%
    04:00 -2°C° 0 mm 1 m/S 615 mmHg 76%
    05:00 -2°C° 0 mm 1 m/S 615 mmHg 75%
    06:00 -2°C° 0 mm 1 m/S 615 mmHg 75%
    07:00 -2°C° 0 mm 1 m/S 616 mmHg 72%
    08:00 -1°C° 0 mm 1 m/S 617 mmHg 69%
    09:00 0°C° 0 mm 1 m/S 617 mmHg 66%
    10:00 +1°C° 0 mm 1 m/S 618 mmHg 62%
    11:00 +2°C° 0 mm 1 m/S 618 mmHg 57%
    12:00 +3°C° 0 mm 1 m/S 619 mmHg 52%
    13:00 +3°C° 0 mm 1 m/S 618 mmHg 57%
    14:00 +1°C° 0 mm 2 m/S 618 mmHg 61%
    15:00 +1°C° 0 mm 2 m/S 618 mmHg 65%
    16:00 0°C° 0.1 mm 1 m/S 618 mmHg 73%
    17:00 -1°C° 0.1 mm 1 m/S 617 mmHg 81%
    18:00 -2°C° 0.1 mm 1 m/S 617 mmHg 89%
    19:00 -2°C° 0 mm 1 m/S 617 mmHg 87%
    20:00 -3°C° 0 mm 1 m/S 618 mmHg 85%
    21:00 -3°C° 0 mm 1 m/S 618 mmHg 84%
    22:00 -2°C° 0.2 mm 1 m/S 618 mmHg 85%
    23:00 -2°C° 0.2 mm 1 m/S 618 mmHg 86%

    übermorgen, 21 Januar, Montag

    Zeit Temperatur Niederschläge Wind Luftdruck Luftfeuchtigkeit
    00:00 -2°C° 0.2 mm 1 m/S 618 mmHg 87%
    01:00 -2°C° 0.7 mm 1 m/S 619 mmHg 88%
    02:00 -2°C° 0.7 mm 1 m/S 619 mmHg 89%
    03:00 -2°C° 0.7 mm 1 m/S 619 mmHg 90%
    04:00 -4°C° 0.4 mm 2 m/S 619 mmHg 91%
    05:00 -4°C° 0.4 mm 2 m/S 619 mmHg 91%
    06:00 -4°C° 0.4 mm 2 m/S 619 mmHg 91%
    07:00 -4°C° 0.4 mm 2 m/S 620 mmHg 89%
    08:00 -4°C° 0.4 mm 2 m/S 620 mmHg 87%
    09:00 -3°C° 0.4 mm 2 m/S 621 mmHg 86%
    10:00 -3°C° 0.2 mm 2 m/S 621 mmHg 81%
    11:00 -2°C° 0.2 mm 3 m/S 621 mmHg 77%
    12:00 -1°C° 0.2 mm 3 m/S 621 mmHg 72%
    13:00 -2°C° 0.1 mm 3 m/S 621 mmHg 73%
    14:00 -2°C° 0.1 mm 3 m/S 621 mmHg 73%
    15:00 -2°C° 0.1 mm 3 m/S 621 mmHg 73%
    16:00 -4°C° 0.1 mm 3 m/S 621 mmHg 78%
    17:00 -6°C° 0.1 mm 3 m/S 620 mmHg 83%
    18:00 -6°C° 0.1 mm 2 m/S 620 mmHg 88%
    19:00 -6°C° 0 mm 2 m/S 620 mmHg 89%
    20:00 -7°C° 0 mm 2 m/S 621 mmHg 89%
    21:00 -7°C° 0 mm 2 m/S 621 mmHg 90%
    22:00 -7°C° 0 mm 2 m/S 620 mmHg 90%
    23:00 -8°C° 0 mm 2 m/S 620 mmHg 90%

    22 Januar, Dienstag

    Zeit Temperatur Niederschläge Wind Luftdruck Luftfeuchtigkeit
    00:00 -9°C° 0 mm 2 m/S 620 mmHg 90%
    01:00 -9°C° 0 mm 2 m/S 619 mmHg 84%
    02:00 -9°C° 0 mm 2 m/S 619 mmHg 78%
    03:00 -10°C° 0 mm 2 m/S 618 mmHg 72%
    04:00 -10°C° 0 mm 2 m/S 618 mmHg 66%
    05:00 -10°C° 0 mm 2 m/S 618 mmHg 61%
    06:00 -10°C° 0 mm 2 m/S 618 mmHg 55%
    07:00 -8°C° 0 mm 2 m/S 618 mmHg 53%
    08:00 -4°C° 0 mm 1 m/S 618 mmHg 51%
    09:00 -3°C° 0 mm 1 m/S 619 mmHg 49%
    10:00 -1°C° 0 mm 1 m/S 619 mmHg 47%
    11:00 0°C° 0 mm 1 m/S 619 mmHg 46%
    12:00 +2°C° 0 mm 1 m/S 618 mmHg 44%
    13:00 +1°C° 0.4 mm 1 m/S 617 mmHg 55%
    14:00 0°C° 0.4 mm 1 m/S 616 mmHg 65%
    15:00 -3°C° 0.4 mm 2 m/S 615 mmHg 76%
    16:00 -3°C° 0.6 mm 2 m/S 615 mmHg 79%
    17:00 -4°C° 0.6 mm 2 m/S 614 mmHg 83%
    18:00 -4°C° 0.6 mm 2 m/S 613 mmHg 87%
    19:00 -5°C° 0.3 mm 2 m/S 613 mmHg 89%
    20:00 -5°C° 0.3 mm 2 m/S 612 mmHg 90%
    21:00 -5°C° 0.3 mm 2 m/S 612 mmHg 92%
    22:00 -5°C° 1 mm 2 m/S 611 mmHg 93%
    23:00 -5°C° 1 mm 2 m/S 611 mmHg 93%

    23 Januar, Mittwoch

    Zeit Temperatur Niederschläge Wind Luftdruck Luftfeuchtigkeit
    00:00 -5°C° 1 mm 2 m/S 611 mmHg 94%
    01:00 -7°C° 1.6 mm 3 m/S 610 mmHg 94%
    02:00 -7°C° 1.6 mm 3 m/S 610 mmHg 94%
    03:00 -8°C° 1.6 mm 3 m/S 609 mmHg 94%
    04:00 -8°C° 1.1 mm 3 m/S 609 mmHg 94%
    05:00 -8°C° 1.1 mm 3 m/S 608 mmHg 94%
    06:00 -8°C° 1.1 mm 3 m/S 608 mmHg 94%
    07:00 -8°C° 1.5 mm 3 m/S 608 mmHg 94%
    08:00 -7°C° 1.5 mm 2 m/S 607 mmHg 94%
    09:00 -7°C° 1.5 mm 2 m/S 607 mmHg 95%
    10:00 -7°C° 1.6 mm 2 m/S 606 mmHg 94%
    11:00 -7°C° 1.6 mm 2 m/S 605 mmHg 93%
    12:00 -7°C° 1.6 mm 2 m/S 605 mmHg 92%
    13:00 -9°C° 1.4 mm 3 m/S 604 mmHg 92%
    14:00 -9°C° 1.4 mm 3 m/S 603 mmHg 92%
    15:00 -10°C° 1.4 mm 4 m/S 603 mmHg 92%
    16:00 -11°C° 1.4 mm 4 m/S 603 mmHg 93%
    17:00 -11°C° 1.4 mm 4 m/S 603 mmHg 94%
    18:00 -12°C° 1.4 mm 5 m/S 603 mmHg 95%
    19:00 -13°C° 0.9 mm 5 m/S 603 mmHg 95%
    20:00 -13°C° 0.9 mm 5 m/S 604 mmHg 95%
    21:00 -14°C° 0.9 mm 5 m/S 604 mmHg 95%
    22:00 -14°C° 0.7 mm 5 m/S 604 mmHg 94%
    23:00 -14°C° 0.7 mm 5 m/S 604 mmHg 94%

    24 Januar, Donnerstag

    Zeit Temperatur Niederschläge Wind Luftdruck Luftfeuchtigkeit
    00:00 -16°C° 0.7 mm 6 m/S 604 mmHg 94%
    01:00 -16°C° 0.6 mm 6 m/S 604 mmHg 94%
    02:00 -17°C° 0.6 mm 7 m/S 604 mmHg 94%
    03:00 -17°C° 0.6 mm 8 m/S 604 mmHg 94%
    04:00 -17°C° 0.5 mm 8 m/S 604 mmHg 92%
    05:00 -17°C° 0.5 mm 9 m/S 604 mmHg 91%
    06:00 -17°C° 0.5 mm 9 m/S 604 mmHg 90%
    07:00 -18°C° 0.4 mm 10 m/S 605 mmHg 88%
    08:00 -17°C° 0.4 mm 10 m/S 605 mmHg 87%
    09:00 -17°C° 0.4 mm 10 m/S 606 mmHg 86%
    10:00 -15°C° 0.1 mm 10 m/S 606 mmHg 84%
    11:00 -15°C° 0.1 mm 10 m/S 606 mmHg 82%
    12:00 -14°C° 0.1 mm 10 m/S 606 mmHg 80%
    13:00 -14°C° 0 mm 9 m/S 606 mmHg 78%
    14:00 -14°C° 0 mm 9 m/S 605 mmHg 76%
    15:00 -13°C° 0 mm 8 m/S 605 mmHg 75%
    16:00 -15°C° 0 mm 8 m/S 605 mmHg 79%
    17:00 -15°C° 0 mm 7 m/S 605 mmHg 84%
    18:00 -15°C° 0 mm 6 m/S 605 mmHg 89%
    19:00 -15°C° 0.1 mm 7 m/S 605 mmHg 88%
    20:00 -16°C° 0.1 mm 8 m/S 606 mmHg 88%
    21:00 -16°C° 0.1 mm 8 m/S 606 mmHg 87%
    22:00 -16°C° 0.1 mm 8 m/S 606 mmHg 88%
    23:00 -16°C° 0.1 mm 8 m/S 606 mmHg 89%
    Mehr zeigen